GFSFLT1_925_temp_009.txt.gz
Temp
13 14 15 15 15 15 15 15 14 15 15 14 14 15 14 15 14 14 14 14 14 14 13 13 12 12 12 11 10 9 9 8
13 13 14 15 14 15 15 15 15 16 15 14 15 15 14 14 14 14 14 13 13 12 12 12 11 11 11 11 11 10 10 8
14 13 14 15 16 16 15 15 15 16 16 16 15 15 14 13 13 13 12 11 11 11 11 11 11 10 10 10 9 9 8 6
15 14 13 13 14 15 15 15 15 15 16 16 15 14 13 12 11 11 11 11 11 11 11 10 9 9 8 8 6 7 8 6
15 14 13 13 14 14 14 14 14 14 14 14 14 13 12 11 11 11 11 10 10 10 9 9 8 8 6 5 5 5 5 6
15 15 14 13 14 14 14 14 14 13 13 13 13 13 12 11 11 10 10 10 9 9 9 8 7 6 6 5 4 4 4 4
14 13 13 12 13 13 14 14 12 13 12 12 11 11 11 10 9 8 8 9 9 9 8 7 6 5 4 4 4 4 3 3
14 14 13 12 11 11 11 11 10 11 11 10 10 10 9 8 8 7 8 8 8 7 7 6 4 4 4 3 3 4 3 3
14 12 11 11 10 10 10 10 9 10 10 10 10 10 9 9 8 7 7 6 6 6 5 4 3 3 3 2 3 2 2 2
13 11 10 10 10 10 11 10 10 10 10 9 9 9 8 7 7 7 6 6 5 5 4 3 3 3 3 3 2 2 2 2
12 11 10 9 9 9 10 10 10 9 9 9 9 8 7 7 7 6 5 5 4 3 3 3 4 3 3 2 2 2 2 2
11 10 9 8 8 8 10 10 10 10 9 9 8 8 7 6 6 5 4 4 4 3 3 3 3 3 2 3 3 3 2 2
11 10 9 9 9 8 11 10 10 9 9 8 7 7 6 5 5 4 3 3 3 2 2 2 2 2 2 3 3 2 2 1
10 9 9 9 8 9 10 10 9 8 8 7 7 6 5 4 4 3 2 2 1 1 2 2 2 2 2 3 2 0 -0 -1
11 10 9 9 9 9 10 9 8 8 7 7 6 5 4 4 3 2 2 1 1 1 2 2 1 2 2 2 1 -1 -1 -2
10 10 9 9 8 9 9 8 8 7 7 6 5 5 4 4 3 2 2 2 1 1 1 1 1 1 1 0 -1 -2 -2 -3
10 10 9 8 8 8 9 8 7 7 6 6 5 4 4 4 3 2 1 1 1 1 1 1 1 -0 -1 -1 -1 -3 -4 -4
11 10 9 9 8 9 8 7 7 7 6 5 5 4 4 3 3 1 1 1 1 0 0 -1 -1 -1 -1 -2 -2 -4 -5 -5
10 10 9 9 8 8 7 7 7 6 5 5 5 4 3 3 2 1 1 0 0 0 -1 -1 -1 -3 -3 -3 -4 -5 -6 -6

GFSFLT1_925_temp_012.txt.gz
Temp
20 19 19 20 20 19 17 15 14 14 14 15 14 14 14 14 14 14 13 13 13 14 13 12 13 13 13 13 12 13 12 12
19 18 18 18 17 17 16 15 15 15 15 15 15 16 15 14 14 12 12 12 12 12 13 13 12 12 11 11 12 12 12 11
19 18 18 18 18 17 16 16 16 17 17 17 17 16 15 14 13 12 12 12 12 12 12 12 12 12 11 11 10 11 12 11
20 19 18 18 17 17 18 17 17 17 16 15 15 14 14 14 14 13 12 11 11 11 11 11 10 10 11 10 9 9 10 10
20 19 19 18 17 17 17 16 15 15 15 16 16 16 17 14 13 12 12 10 10 10 10 10 9 9 9 9 8 7 7 9
21 20 19 17 16 16 15 15 15 14 14 14 15 14 13 13 12 11 11 11 11 10 10 9 9 9 8 7 7 7 7 7
20 19 17 17 15 15 14 14 14 13 13 13 12 12 12 12 11 11 11 11 11 10 10 8 8 8 7 6 6 6 6 6
19 18 18 16 15 14 14 14 13 12 12 12 11 11 11 11 10 10 9 10 9 9 8 8 7 7 6 5 5 5 5 5
20 19 17 16 14 14 14 13 13 12 12 11 11 10 10 10 9 8 8 8 8 7 7 7 6 5 4 4 4 5 4 4
19 17 16 15 14 13 14 13 12 12 11 10 9 9 9 8 8 8 7 7 7 7 6 6 5 4 4 5 5 5 4 4
18 16 15 15 14 13 12 13 12 11 10 10 9 9 8 8 7 7 6 6 6 6 6 5 5 3 4 5 5 5 4 4
17 16 15 14 13 12 12 12 10 9 10 9 9 8 8 7 7 6 6 5 5 5 5 5 4 4 4 4 4 4 4 4
17 15 14 13 13 13 12 11 11 11 10 9 9 8 7 7 6 6 5 5 4 4 4 4 4 4 4 4 4 4 4 4
17 15 14 13 13 12 11 11 10 10 9 9 9 8 7 7 6 5 5 4 4 4 4 4 4 3 3 4 4 4 3 3
16 15 14 13 13 12 11 9 10 10 10 9 9 8 7 6 5 5 4 4 4 4 4 3 3 3 3 3 3 3 2 2
16 16 15 14 13 12 10 11 10 9 9 9 8 7 6 6 5 5 4 3 4 4 3 3 2 2 2 2 2 1 1 1
16 15 15 14 13 11 12 11 10 9 8 8 8 7 6 5 5 4 4 4 4 4 3 3 2 2 -0 -0 -0 0 0 -0
16 15 15 14 12 12 11 11 9 8 8 7 7 6 5 5 5 4 4 4 4 3 3 2 2 1 -1 -1 -1 -1 -1 -1
16 15 14 13 12 11 11 9 8 8 7 7 6 6 5 5 5 4 4 4 3 3 3 2 2 -1 -2 -2 -2 -2 -2 -2

GFSFLT1_925_temp_015.txt.gz
Temp
25 24 24 24 24 22 20 19 17 15 14 15 16 16 16 16 16 16 16 15 15 15 15 14 14 15 15 14 13 13 13 14
23 23 22 23 22 22 17 16 15 16 17 18 17 18 17 16 16 15 15 14 14 14 15 15 14 14 13 13 13 12 13 13
23 22 22 21 21 20 17 17 17 18 19 19 19 19 18 17 16 14 14 14 14 14 13 13 13 12 12 12 12 11 12 12
23 22 22 21 20 19 19 19 19 20 19 18 18 17 16 16 16 16 14 13 13 13 12 12 12 11 12 11 11 10 10 10
24 23 21 21 20 20 20 19 19 18 18 19 19 19 18 16 16 15 14 13 12 12 12 11 11 11 10 10 11 9 9 10
23 23 22 21 19 19 19 18 18 17 17 17 17 17 16 15 14 13 13 13 12 12 12 11 11 10 10 9 9 9 8 8
24 22 21 19 18 18 17 18 17 16 16 15 14 14 14 14 13 13 12 12 11 11 10 9 9 9 9 9 8 8 7 6
23 22 21 19 18 17 17 17 16 15 14 14 13 13 12 12 12 11 11 11 10 10 9 9 9 9 9 8 6 6 5 6
23 22 21 19 18 17 17 16 15 14 14 13 12 11 10 11 11 10 10 9 9 8 8 8 8 8 6 5 5 5 5 5
23 22 20 19 17 17 16 16 15 14 13 12 10 10 10 10 10 9 9 9 8 8 8 8 8 6 5 5 4 5 5 6
23 21 19 18 17 16 16 16 15 13 11 11 10 11 10 10 9 9 8 8 7 7 7 7 7 6 6 4 5 6 5 5
22 20 19 18 17 16 15 15 14 12 11 11 11 10 10 10 9 8 8 7 7 7 6 6 6 7 6 5 5 5 4 5
23 20 18 17 16 15 15 14 13 12 12 11 11 10 10 10 9 8 7 7 6 6 6 6 6 6 5 5 5 5 5 5
23 20 18 17 16 15 15 13 13 12 11 12 11 11 10 9 9 8 7 7 6 6 6 6 6 5 5 4 4 5 5 4
22 21 18 17 16 15 14 13 12 11 12 12 12 11 10 9 8 8 7 6 6 6 6 5 5 5 5 5 5 4 3 3
22 20 19 17 16 15 14 13 12 12 12 12 11 10 9 9 8 7 7 6 6 6 6 5 4 4 4 2 3 3 2 2
21 20 19 17 16 15 14 12 13 12 11 11 10 10 9 8 7 7 6 6 6 6 6 5 4 4 2 1 0 1 2 2
20 20 18 17 17 15 14 13 12 11 11 10 10 9 8 7 7 7 7 6 6 6 5 5 4 3 1 0 -1 -1 1 1
20 19 18 17 16 15 13 13 12 11 10 10 9 8 7 7 7 7 7 6 6 5 5 4 4 2 1 -0 -1 -1 -0 -0

GFSFLT1_925_temp_021.txt.gz
Temp
24 25 22 20 20 20 19 19 18 18 17 17 16 16 16 16 16 15 15 15 15 14 14 13 13 13 13 12 12 12 11 11
25 24 22 20 20 20 19 19 18 17 16 17 16 16 16 15 15 15 15 14 14 14 14 13 13 12 12 11 11 11 11 11
22 23 22 19 19 19 19 18 17 17 17 17 17 17 16 16 16 15 15 14 14 13 13 12 12 11 11 11 10 10 10 9
21 22 21 18 17 17 18 17 17 17 17 17 17 17 16 15 14 14 14 13 13 13 12 12 11 11 10 10 10 9 9 9
21 20 18 17 16 17 18 17 17 17 17 18 17 16 15 15 14 13 13 13 13 12 12 11 11 10 10 9 9 9 9 7
20 19 19 19 18 18 18 18 18 17 18 18 17 16 14 14 13 13 13 13 12 11 11 11 10 9 8 9 9 8 7 6
19 19 19 18 19 18 18 18 18 18 18 17 16 15 14 14 14 13 13 12 11 10 10 9 8 8 8 8 7 7 6 6
18 17 17 18 18 18 18 18 16 16 16 15 15 14 14 14 13 12 11 11 10 9 9 8 8 8 7 7 7 6 6 5
18 17 17 17 18 18 17 17 15 15 15 14 14 14 14 13 12 11 10 10 9 8 8 8 7 7 7 7 7 6 5 5
17 17 17 18 18 18 17 16 15 14 14 13 13 13 12 11 11 10 9 9 8 8 7 7 7 7 6 6 6 5 5 5
18 17 17 17 18 17 17 15 14 14 13 13 12 11 11 11 10 9 9 8 8 7 7 7 6 6 6 6 5 5 5 5
18 17 17 17 17 17 17 15 14 13 13 12 11 11 10 10 10 9 9 8 7 7 7 6 6 6 6 5 5 5 5 4
18 17 17 16 17 17 17 15 14 13 13 12 11 11 10 10 10 9 9 8 7 7 6 6 6 5 6 5 5 5 4 4
19 17 17 16 16 16 16 15 14 13 12 12 11 11 10 10 10 9 9 8 7 7 6 6 6 5 5 5 4 4 3 3
19 17 17 16 16 16 16 15 14 13 12 12 11 11 11 10 10 9 9 8 7 6 6 6 6 5 5 4 4 3 3 2
18 17 16 16 16 15 15 15 14 13 12 12 12 11 11 10 9 9 8 7 7 7 6 6 6 5 5 4 4 3 3 2
19 17 16 16 15 14 15 15 14 13 12 12 12 10 10 9 8 8 7 7 7 7 6 6 6 5 5 4 3 3 2 1
19 17 17 16 15 16 15 15 14 13 13 12 11 9 9 8 7 7 7 6 7 6 6 6 6 5 4 3 2 2 1 0
18 18 18 18 17 17 16 14 13 12 12 9 9 8 7 6 6 6 5 5 4 6 6 5 5 4 4 3 2 1 0 -0

GFSFLT1_925_temp_024.txt.gz
Temp
19 18 18 19 19 19 18 19 18 18 17 17 16 16 15 15 15 15 15 15 15 14 14 14 13 13 13 12 12 11 11 10
20 19 18 18 18 19 19 18 18 18 16 16 16 16 15 15 15 15 15 15 14 14 14 13 13 12 12 11 10 10 10 9
19 19 18 18 18 18 18 18 18 17 17 17 17 16 15 15 15 14 14 14 14 14 14 13 13 12 11 10 10 10 9 9
19 19 18 17 17 17 17 17 17 17 18 16 16 16 15 14 14 14 14 13 13 13 12 12 11 11 10 9 9 9 8 8
19 17 17 17 17 18 17 18 17 17 17 16 16 15 13 14 14 14 13 13 13 12 12 11 11 10 9 9 8 8 8 7
18 16 16 16 16 16 17 16 16 16 16 16 16 15 14 14 13 13 13 12 11 11 11 10 9 8 8 8 8 7 7 6
17 16 16 15 16 17 17 17 16 16 16 16 16 16 14 13 13 13 12 11 10 10 10 9 8 8 7 7 7 7 6 6
17 15 15 15 15 16 16 17 16 16 16 15 16 15 14 13 13 12 11 10 9 9 8 8 7 7 7 6 7 6 6 5
17 15 15 15 15 15 16 16 16 15 16 15 14 14 14 13 12 11 10 10 9 8 8 7 7 7 6 6 6 6 5 5
15 14 15 15 15 16 16 16 15 15 15 14 14 13 13 12 11 10 10 9 8 8 7 7 7 6 6 6 6 5 5 5
15 15 15 15 17 17 16 16 16 15 14 14 13 13 12 11 10 10 9 9 8 8 7 7 6 6 6 6 5 5 5 5
16 16 15 16 16 16 16 16 15 14 14 14 13 12 11 11 10 10 9 9 9 8 7 7 6 6 6 6 5 5 4 4
17 16 15 15 15 15 15 15 15 15 14 14 13 12 11 10 10 9 9 9 8 8 7 6 6 6 5 5 5 5 5 3
17 15 15 14 15 15 14 14 14 14 13 13 12 11 11 10 10 9 9 8 8 7 7 7 6 6 5 5 5 4 4 3
16 15 15 15 15 14 13 12 13 13 12 12 12 11 11 10 10 9 9 8 8 7 7 7 6 6 6 5 5 4 3 3
16 15 14 15 15 14 12 14 13 13 12 12 12 11 11 10 9 8 8 7 7 7 7 7 6 6 6 5 4 4 3 2
17 15 14 14 14 13 13 13 12 12 12 12 12 11 10 9 8 7 7 7 7 6 6 6 6 6 5 5 4 3 3 2
15 14 14 15 14 14 14 13 12 11 11 11 11 10 8 7 6 6 5 5 5 5 5 6 6 5 5 5 3 3 2 1
15 15 15 16 16 15 14 12 11 11 11 9 8 7 6 5 4 4 4 4 4 4 5 5 5 5 5 4 3 2 1 1

GFSFLT1_925_temp_030.txt.gz
Temp
16 16 16 16 16 16 16 16 16 16 16 16 15 15 16 16 16 16 15 15 14 15 14 13 13 13 12 12 11 10 10 9
17 16 17 16 16 16 16 16 17 16 16 15 14 15 15 15 15 15 14 14 14 14 14 13 12 12 11 10 10 9 9 9
17 17 17 17 17 17 16 17 17 16 16 16 16 15 15 15 15 14 14 14 13 13 13 12 11 11 10 9 9 9 8 8
17 16 16 16 16 16 16 17 17 16 15 15 15 14 14 14 13 14 13 13 13 12 12 11 11 10 10 9 9 9 8 7
17 17 16 15 15 15 16 17 17 15 15 15 15 15 13 13 13 13 12 12 12 11 11 11 10 10 9 9 9 8 8 7
17 17 17 16 16 16 15 15 15 15 15 15 15 14 13 13 12 12 12 11 11 11 10 10 10 9 9 9 8 7 7 6
16 17 17 17 16 16 15 16 15 15 15 15 14 13 12 12 11 11 11 11 10 10 10 10 9 9 8 8 7 6 6 6
14 14 15 16 16 15 14 16 13 14 14 13 13 14 13 13 12 12 10 10 9 9 9 9 9 9 8 8 7 6 6 5
15 15 15 15 15 15 14 14 14 14 14 14 14 14 13 13 13 12 11 11 10 10 9 9 8 7 8 7 6 5 5 5
15 15 15 14 15 15 15 13 13 14 14 14 14 14 13 13 13 12 11 11 10 9 9 8 8 8 7 7 6 6 5 5
14 14 15 15 16 15 15 14 15 14 14 14 15 15 14 12 12 11 11 10 10 9 8 8 8 8 7 6 6 5 5 5
13 13 14 14 15 15 15 15 15 15 15 14 14 14 12 11 11 11 11 10 9 9 8 8 8 7 7 6 5 5 5 5
12 13 13 13 14 14 15 14 14 14 14 14 12 11 11 12 12 11 11 10 9 9 8 8 7 7 6 6 5 5 5 5
12 12 11 12 12 12 13 12 13 13 13 12 11 12 12 12 12 11 10 10 9 8 8 7 7 7 6 6 5 5 5 5
12 11 11 12 12 13 12 12 12 12 12 11 12 12 12 12 11 10 10 9 8 8 7 7 7 6 5 6 5 5 5 5
13 12 11 12 13 12 12 12 11 10 11 11 11 11 11 10 9 9 9 8 8 7 7 6 5 5 5 5 5 5 5 5
14 13 12 12 12 13 13 13 12 12 11 10 9 9 9 8 9 9 8 7 6 6 5 5 5 4 5 5 5 5 5 4
9 9 11 12 13 13 12 11 10 10 9 8 8 8 8 8 7 7 6 5 5 4 3 4 4 3 4 4 4 4 4 4
6 6 7 8 10 10 10 10 9 8 8 7 7 7 6 5 5 4 4 3 3 3 3 2 2 3 3 4 4 4 4 3

GFSFLT1_925_temp_033.txt.gz
Temp
17 16 16 15 15 15 15 15 15 15 16 16 16 15 15 15 15 15 15 15 15 15 14 14 13 13 12 12 12 11 10 9
17 16 16 16 15 15 15 15 16 15 15 14 14 14 14 14 15 15 15 15 14 14 14 13 13 12 12 12 11 9 8 8
17 16 16 15 16 15 15 15 16 15 15 15 14 14 13 14 14 14 14 14 14 14 13 13 12 12 12 11 10 8 8 8
19 17 16 16 16 15 15 15 15 15 15 15 15 14 13 12 12 13 13 13 13 13 13 13 12 11 11 10 10 9 8 6
20 19 17 16 16 15 15 15 16 15 15 14 15 14 13 12 12 12 12 12 12 12 12 12 11 11 10 9 9 8 8 8
20 20 19 18 16 15 15 14 14 15 14 13 13 13 13 13 13 12 11 11 12 12 11 11 11 10 9 8 8 7 7 7
20 19 19 18 16 15 16 15 14 14 13 13 12 13 13 13 12 11 11 11 11 11 11 11 10 9 9 8 7 7 7 6
20 19 18 17 15 14 14 15 14 15 15 13 12 13 13 13 13 12 11 10 10 10 11 10 10 10 9 8 7 7 7 5
21 21 19 18 15 15 15 14 16 18 14 13 12 12 13 14 14 13 12 11 9 9 9 9 9 8 7 6 7 6 6 5
20 20 19 18 16 15 15 15 15 15 13 12 12 12 13 13 13 11 11 10 9 10 9 9 8 8 7 7 7 7 6 5
18 18 18 17 16 15 15 15 15 15 13 12 12 13 13 12 11 10 9 9 10 9 9 8 8 7 7 8 7 7 6 5
18 17 16 16 16 15 15 15 15 13 13 12 13 13 12 12 11 9 9 9 9 9 9 8 8 8 8 7 6 6 6 5
18 17 16 15 15 14 14 13 13 13 14 14 13 12 12 10 10 9 9 9 9 9 9 8 7 7 7 7 6 6 5 4
17 16 16 15 14 13 12 13 12 14 13 12 11 11 9 8 8 9 8 9 9 9 8 8 8 7 6 6 4 4 5 5
17 16 15 14 13 13 13 13 12 11 9 9 9 8 8 8 8 7 8 8 9 9 8 8 7 6 5 4 3 3 4 5
16 15 15 14 13 12 12 11 12 12 11 10 10 10 8 7 7 8 8 9 8 8 8 6 5 4 4 4 4 3 3 4
15 15 14 14 13 13 12 11 11 11 10 9 8 8 7 8 8 8 8 7 7 6 5 4 3 5 3 2 3 3 4 3
11 11 11 11 11 10 10 10 9 8 8 7 8 8 8 7 7 7 6 5 4 3 3 3 4 2 2 2 3 3 2 3
9 9 8 7 8 8 8 8 7 7 6 6 6 6 5 5 5 4 3 3 3 3 2 3 2 2 2 2 2 2 2 2

GFSFLT1_925_temp_039.txt.gz
Temp
21 20 19 18 17 16 16 16 15 16 16 16 17 17 17 18 17 17 16 17 17 17 18 16 16 17 16 16 16 15 16 16
21 21 19 19 18 17 17 17 17 16 17 18 18 18 18 17 16 17 17 18 16 16 17 15 16 16 16 15 15 15 15 14
22 21 20 19 19 18 18 18 18 18 18 19 19 19 19 18 18 17 17 17 17 16 17 16 16 16 15 15 15 15 15 14
25 23 21 20 20 19 19 19 19 18 19 20 19 20 19 18 18 18 17 16 16 16 16 16 15 16 14 14 14 15 15 14
27 25 23 22 21 20 20 20 20 19 19 20 20 20 18 18 18 18 17 15 15 16 15 15 15 15 15 14 14 14 13 14
28 27 25 23 22 21 21 21 21 21 19 19 20 20 19 19 17 17 16 14 14 14 14 14 14 14 14 13 13 12 12 12
28 28 26 25 24 23 21 21 21 21 20 19 19 19 18 18 17 16 16 14 13 13 14 13 12 12 13 12 11 11 11 11
29 29 28 27 25 24 22 22 22 21 21 19 17 18 16 16 16 15 14 14 14 13 12 11 11 12 12 12 10 10 9 10
29 29 28 27 26 24 23 22 22 21 19 17 17 18 16 15 15 14 14 14 14 12 11 11 11 12 12 10 9 9 9 9
30 30 29 28 27 26 23 22 21 20 18 16 18 19 15 15 14 14 14 13 11 11 11 10 11 11 11 9 8 9 9 9
30 30 30 29 28 27 25 23 22 19 15 16 17 15 15 15 15 14 13 11 9 9 10 10 10 10 9 8 8 8 8 8
28 28 28 28 28 27 25 23 23 19 17 17 15 16 15 14 14 14 12 10 9 10 10 10 9 8 8 8 8 8 9 9
28 27 26 26 26 26 25 23 22 22 19 18 17 17 16 14 14 13 12 11 10 10 10 9 8 9 9 7 7 8 7 5
28 27 26 25 24 24 23 22 22 22 21 19 18 16 15 14 13 12 11 10 10 10 9 8 9 8 7 7 7 5 5 4
28 27 26 24 23 23 22 21 21 22 21 20 18 14 13 12 11 10 10 9 9 8 9 9 8 7 7 7 5 4 3 4
27 26 25 23 22 21 21 19 18 18 17 17 16 13 12 11 10 10 9 9 8 8 8 7 7 6 5 4 4 3 4 3
25 25 24 23 21 20 18 17 16 16 16 16 14 14 13 12 12 11 10 8 7 7 6 5 5 4 4 4 4 5 3 2
23 23 22 21 19 18 17 16 16 15 15 14 13 12 11 10 9 8 6 6 5 5 5 4 5 5 4 3 3 2 3 2
21 20 19 18 18 17 16 15 15 14 13 12 12 11 10 9 8 7 6 5 4 4 4 4 4 4 4 3 3 3 2 3